Location: Newark
(34.3481°N, 134.0494°E)
Time: 01:43:25
(UTC+00:00)

Vanguard 3 - Pass Details

Date: 20 January 2020
Orbit: 508 x 3263 km, 33.3° (Epoch: 21 February)

Event Time Altitude Azimuth Distance (km) Brightness Sun altitude
Rises 13:54:39 0° 278° (W) 6,545 12.1 -67.3°
Reaches altitude 10° 13:59:36 10° 278° (W) 5,155 11.4 -68.2°
Enters shadow 14:02:41 18° 277° (W) 4,256 10.9 -68.7°
